| time (UTC) | temp F | wind direction | speed MPH | gust MPH | rain 1hr in | rain 24hr in | rain mn in | humidity % | barometer mb |
| 20260902024232 | 67 | 229 | 4.0 | 11.0 | 0.00 | 0.00 | 0.00 | 55 | 1014.7 |
| 20260902023730 | 68 | 252 | 6.0 | 13.0 | 0.00 | 0.00 | 0.00 | 54 | 1014.7 |
| 20260902023229 | 68 | 240 | 6.0 | 13.0 | 0.00 | 0.00 | 0.00 | 53 | 1014.6 |
| 20260902022729 | 68 | 252 | 6.0 | 10.0 | 0.00 | 0.00 | 0.00 | 53 | 1014.5 |
| 20260902022229 | 68 | 267 | 6.0 | 13.0 | 0.00 | 0.00 | 0.00 | 54 | 1014.6 |
| 20260902021727 | 69 | 257 | 6.0 | 13.0 | 0.00 | 0.00 | 0.00 | 54 | 1014.6 |
| 20260902021226 | 69 | 239 | 7.0 | 16.0 | 0.00 | 0.00 | 0.00 | 53 | 1014.6 |
| 20260902020724 | 69 | 267 | 7.0 | 16.0 | 0.00 | 0.00 | 0.00 | 53 | 1014.5 |
| 20260902020703 | 69 | 273 | 7.0 | 14.0 | 0.00 | 0.00 | 0.00 | 53 | 1014.4 |
| 20260902015722 | 70 | 253 | 7.0 | 12.0 | 0.00 | 0.00 | 0.00 | 53 | 1014.3 |
| 20260902015222 | 70 | 243 | 6.0 | 12.0 | 0.00 | 0.00 | 0.00 | 53 | 1014.3 |
| 20260902014723 | 70 | 248 | 6.0 | 12.0 | 0.00 | 0.00 | 0.00 | 52 | 1014.3 |
| 20260902014219 | 71 | 262 | 6.0 | 15.0 | 0.00 | 0.00 | 0.00 | 51 | 1014.2 |
| 20260902013719 | 71 | 238 | 7.0 | 15.0 | 0.00 | 0.00 | 0.00 | 50 | 1014.2 |
| 20260902013430 | 71 | 270 | 7.0 | 13.0 | 0.00 | 0.00 | 0.00 | 50 | 1014.2 |
| 20260902012710 | 71 | 284 | 7.0 | 13.0 | 0.00 | 0.00 | 0.00 | 49 | 1014.2 |
| 20260902012430 | 72 | 248 | 7.0 | 13.0 | 0.00 | 0.00 | 0.00 | 48 | 1014.2 |
| 20260902011706 | 72 | 242 | 7.0 | 13.0 | 0.00 | 0.00 | 0.00 | 47 | 1014.1 |
| 20260902011658 | 72 | 272 | 7.0 | 14.0 | 0.00 | 0.00 | 0.00 | 47 | 1014.1 |
| 20260902010707 | 73 | 276 | 8.0 | 14.0 | 0.00 | 0.00 | 0.00 | 47 | 1014.1 |
| 20260902010205 | 73 | 281 | 7.0 | 16.0 | 0.00 | 0.00 | 0.00 | 46 | 1014.0 |
| 20260902005705 | 73 | 290 | 7.0 | 16.0 | 0.00 | 0.00 | 0.00 | 45 | 1013.9 |
| 20260902005200 | 74 | 281 | 6.0 | 11.0 | 0.00 | 0.00 | 0.00 | 45 | 1014.0 |
| 20260902004658 | 74 | 253 | 6.0 | 11.0 | 0.00 | 0.00 | 0.00 | 45 | 1014.1 |
| 20260902004156 | 74 | 264 | 7.0 | 12.0 | 0.00 | 0.00 | 0.00 | 44 | 1014.1 |
| 20260902003654 | 74 | 271 | 7.0 | 15.0 | 0.00 | 0.00 | 0.00 | 44 | 1014.1 |
| 20260902003417 | 74 | 273 | 7.0 | 15.0 | 0.00 | 0.00 | 0.00 | 44 | 1014.0 |
| 20260902002652 | 74 | 271 | 7.0 | 13.0 | 0.00 | 0.00 | 0.00 | 43 | 1013.9 |
| 20260902002153 | 75 | 238 | 8.0 | 13.0 | 0.00 | 0.00 | 0.00 | 44 | 1013.9 |
| 20260902001657 | 75 | 265 | 8.0 | 10.0 | 0.00 | 0.00 | 0.00 | 42 | 1014.0 |
| 20260902001246 | 0 | 0.0 | 0.0 | 0.00 | 0.00 | 0.00 | |||
| 20260902000744 | 0 | 0.0 | 0.0 | 0.00 | 0.00 | 0.00 | |||
| 20260902000729 | 0 | 0.0 | 0.0 | 0.00 | 0.00 | 0.00 | |||
| 20260901235744 | 0 | 0.0 | 0.0 | 0.00 | 0.00 | 0.00 | |||
| 20260901233715 | 77 | 292 | 6.0 | 10.0 | 0.00 | 0.00 | 0.00 | 41 | 1013.9 |
| 20260901233429 | 77 | 194 | 7.0 | 13.0 | 0.00 | 0.00 | 0.00 | 40 | 1013.9 |
| 20260901232652 | 77 | 238 | 6.0 | 11.0 | 0.00 | 0.00 | 0.00 | 41 | 1014.0 |
| 20260901232005 | 0 | 0.0 | 0.0 | 0.00 | 0.00 | 0.00 | |||
| 20260901231351 | 0 | 0.0 | 0.0 | 0.00 | 0.00 | 0.00 | |||
| 20260901230846 | 0 | 0.0 | 0.0 | 0.00 | 0.00 | 0.00 | |||
| 20260901230359 | 0 | 0.0 | 0.0 | 0.00 | 0.00 | 0.00 | |||
| 20260901214907 | 0 | 0.0 | 0.0 | 0.00 | 0.00 | 0.00 | |||
| 20260901210932 | 78 | 198 | 5.0 | 10.0 | 0.00 | 0.00 | 0.00 | 39 | 1014.5 |
| 20260901210432 | 77 | 205 | 5.0 | 11.0 | 0.00 | 0.00 | 0.00 | 40 | 1014.5 |
| 20260901205932 | 78 | 190 | 5.0 | 11.0 | 0.00 | 0.00 | 0.00 | 39 | 1014.5 |
| 20260901205430 | 78 | 182 | 4.0 | 11.0 | 0.00 | 0.00 | 0.00 | 39 | 1014.5 |
| 20260901205150 | 79 | 196 | 3.0 | 8.0 | 0.00 | 0.00 | 0.00 | 39 | 1014.6 |
| 20260901204642 | 77 | 287 | 2.0 | 8.0 | 0.00 | 0.00 | 0.00 | 40 | 1014.6 |
| 20260901203914 | 76 | 281 | 3.0 | 9.0 | 0.00 | 0.00 | 0.00 | 42 | 1014.7 |
| 20260901203413 | 78 | 312 | 2.0 | 9.0 | 0.00 | 0.00 | 0.00 | 41 | 1014.8 |
| 20260901202913 | 77 | 311 | 2.0 | 4.0 | 0.00 | 0.00 | 0.00 | 41 | 1014.8 |
| 20260901202419 | 77 | 232 | 3.0 | 0.0 | 0.00 | 0.00 | 0.00 | 42 | 1014.9 |
| 20260901071552 | 0 | 0.0 | 0.0 | 0.00 | 0.00 | 0.00 | |||
| 20260901064200 | 61 | 284 | 8.0 | 11.0 | 0.00 | 0.00 | 0.00 | 69 | 1012.4 |
| 20260901063435 | 61 | 260 | 8.0 | 18.0 | 0.00 | 0.00 | 0.00 | 69 | 1012.4 |
| 20260901062935 | 61 | 237 | 7.0 | 18.0 | 0.00 | 0.00 | 0.00 | 68 | 1012.3 |
| 20260901062431 | 61 | 254 | 7.0 | 15.0 | 0.00 | 0.00 | 0.00 | 69 | 1012.3 |
| 20260901061937 | 61 | 275 | 7.0 | 6.0 | 0.00 | 0.00 | 0.00 | 69 | 1012.3 |
| 20260901061629 | 0 | 0.0 | 0.0 | 0.00 | 0.00 | 0.00 | |||
| 20260901060348 | 61 | 240 | 7.0 | 13.0 | 0.00 | 0.00 | 0.00 | 68 | 1012.5 |
| 20260901055845 | 61 | 240 | 7.0 | 13.0 | 0.00 | 0.00 | 0.00 | 68 | 1012.5 |
| 20260901055608 | 61 | 237 | 3.0 | 12.0 | 0.00 | 0.00 | 0.00 | 68 | 1012.6 |
| 20260901055107 | 61 | 264 | 3.0 | 9.0 | 0.00 | 0.00 | 0.00 | 68 | 1012.6 |
| 20260901054342 | 61 | 243 | 3.0 | 7.0 | 0.00 | 0.00 | 0.00 | 68 | 1012.6 |
| 20260901054102 | 61 | 249 | 4.0 | 11.0 | 0.00 | 0.00 | 0.00 | 69 | 1012.5 |
| 20260901053340 | 61 | 221 | 5.0 | 11.0 | 0.00 | 0.00 | 0.00 | 69 | 1012.4 |
| 20260901052839 | 61 | 240 | 7.0 | 11.0 | 0.00 | 0.00 | 0.00 | 69 | 1012.3 |
| 20260901052340 | 61 | 265 | 7.0 | 11.0 | 0.00 | 0.00 | 0.00 | 69 | 1012.3 |
| 20260901051832 | 61 | 273 | 8.0 | 10.0 | 0.00 | 0.00 | 0.00 | 69 | 1012.3 |
| 20260901051524 | 0 | 0.0 | 0.0 | 0.00 | 0.00 | 0.00 | |||
| 20260901050125 | 61 | 278 | 7.0 | 13.0 | 0.00 | 0.00 | 0.00 | 69 | 1012.4 |
| 20260901045357 | 61 | 259 | 8.0 | 14.0 | 0.00 | 0.00 | 0.00 | 69 | 1012.4 |
| 20260901044857 | 61 | 250 | 8.0 | 14.0 | 0.00 | 0.00 | 0.00 | 69 | 1012.4 |
| 20260901044358 | 61 | 274 | 6.0 | 12.0 | 0.00 | 0.00 | 0.00 | 69 | 1012.3 |
| 20260901043855 | 61 | 244 | 5.0 | 10.0 | 0.00 | 0.00 | 0.00 | 69 | 1012.2 |
| 20260901043356 | 61 | 251 | 5.0 | 9.0 | 0.00 | 0.00 | 0.00 | 68 | 1012.2 |
| 20260901042854 | 62 | 261 | 4.0 | 9.0 | 0.00 | 0.00 | 0.00 | 68 | 1012.2 |
| 20260901042616 | 62 | 275 | 3.0 | 8.0 | 0.00 | 0.00 | 0.00 | 68 | 1012.1 |
| 20260901041852 | 62 | 266 | 3.0 | 9.0 | 0.00 | 0.00 | 0.00 | 67 | 1012.2 |
| 20260901041352 | 62 | 231 | 3.0 | 9.0 | 0.00 | 0.00 | 0.00 | 68 | 1012.1 |
| 20260901040852 | 62 | 268 | 4.0 | 11.0 | 0.00 | 0.00 | 0.00 | 67 | 1011.9 |
| 20260901040349 | 62 | 262 | 5.0 | 11.0 | 0.00 | 0.00 | 0.00 | 67 | 1011.8 |
| 20260901035849 | 62 | 234 | 4.0 | 10.0 | 0.00 | 0.00 | 0.00 | 67 | 1011.8 |
| 20260901035350 | 63 | 242 | 4.0 | 10.0 | 0.00 | 0.00 | 0.00 | 67 | 1011.8 |
| 20260901034846 | 63 | 259 | 3.0 | 7.0 | 0.00 | 0.00 | 0.00 | 67 | 1011.7 |
| 20260901034346 | 63 | 240 | 4.0 | 8.0 | 0.00 | 0.00 | 0.00 | 66 | 1011.7 |
| 20260901033845 | 63 | 232 | 3.0 | 8.0 | 0.00 | 0.00 | 0.00 | 66 | 1011.6 |
| 20260901033346 | 63 | 269 | 3.0 | 8.0 | 0.00 | 0.00 | 0.00 | 66 | 1011.5 |
| 20260901032841 | 63 | 230 | 4.0 | 8.0 | 0.00 | 0.00 | 0.00 | 66 | 1011.4 |
| 20260901032339 | 64 | 243 | 3.0 | 9.0 | 0.00 | 0.00 | 0.00 | 66 | 1011.3 |
| 20260901031839 | 64 | 276 | 4.0 | 9.0 | 0.00 | 0.00 | 0.00 | 65 | 1011.2 |
| 20260901031553 | 64 | 249 | 4.0 | 10.0 | 0.00 | 0.00 | 0.00 | 65 | 1011.1 |
| 20260901031054 | 64 | 245 | 5.0 | 10.0 | 0.00 | 0.00 | 0.00 | 65 | 1011.0 |
| 20260901030332 | 64 | 289 | 5.0 | 9.0 | 0.00 | 0.00 | 0.00 | 65 | 1010.9 |
| 20260901025831 | 64 | 268 | 5.0 | 9.0 | 0.00 | 0.00 | 0.00 | 64 | 1011.0 |
| 20260901025332 | 65 | 273 | 5.0 | 12.0 | 0.00 | 0.00 | 0.00 | 64 | 1011.0 |
| 20260901025055 | 65 | 275 | 5.0 | 12.0 | 0.00 | 0.00 | 0.00 | 64 | 1010.9 |